User: anonymous   Login
Location: Castelbiague
(43.0361°N, 0.9246°E)
Time: 22:39:25
(UTC+00:00)
Language:

Uosat 12 SS-18 rocket - Orbit

View from above orbital plane
View from above orbital plane
View from above satellite
View from above satellite

Ground track
Ground track

The orbit data is extracted from the following two-line orbital elements,

1 25695U 99021C   21269.41829203 -.00000057  00000-0  19791-4 0  9991
2 25695  64.5560 318.1612 0554660 354.1305   5.3414 13.72023320123268
Epoch (UTC): 26 September 2021 10:02:20
Eccentricity: 0.0554660
inclination: 64.5560°
perigee height: 583 km
apogee height: 1401 km
right ascension of ascending node: 318.1612°
argument of perigee: 354.1305°
revolutions per day: 13.72023320
mean anomaly at epoch: 5.3414°
orbit number at epoch: 12326

The dashed part of the orbit path shows where the satellite is in the earth's shadow,  

DLR